Content
SEND FEEDBACK

Daily
Averages
Monthly
Summary
United States of America

GORDON, NEBRASKA


Home > North America > United States > Nebraska
Elevation: 1101 meters     Latitude: 42 48N     Longitude: 102 15W

WEATHER
 
SELECT A DAY
Number of Records: 168,115;   Date Range: 6/11/97 - 8/12/14
 
SHARE

PRINT THIS DATA

[ ← Previous Day ]
WEATHER ALMANAC - 23 JANUARY, 2013
[ Next Day → ]
[ °F ]   °C
Weather ElementAverageHighLow
Temperature-8 °C-6.1 °C (11:52 am)-11.7 °C (3:52 am)
Dewpoint-11.4 °C-10 °C (6:52 am)-13.9 °C (2:52 am)
Humidity76.7 %84 % (3:52 am)71 % (11:52 am)
Barometer1027.1 hPa1029.8 hPa (4:52 pm)1021.3 hPa (1:52 am)
Wind Speed10.9 km/h18.5 km/h (8:52 am)
Weather ElementAverage
Visibility16.1 km
Wind DirectionENE (71.7 °)

Weather ElementTotal
Precipitation---
Heating Degree Days27.3 (Base 18.3)
Averaged from 23 records on 23 January, 2013
WEATHER CONDITIONS BREAKOUT
WIND DIRECTION BREAKOUT
WEATHER BY HOUR - 23 JANUARY, 2013
[ °F ]   °C
Local TimeTemperatureDewpointHumidityBarometerVisibilityWind DirectionWind SpeedGust SpeedPrecipitationEventsConditions
1:52 AM-10 °C-12.8 °C80 %1021.3 hPa16.1 kmCalmClear
2:52 AM-11.1 °C-13.9 °C80 %1021.3 hPa16.1 kmCalmClear
3:52 AM-11.7 °C-13.9 °C84 %1021.3 hPa16.1 kmCalmClear
4:52 AM-10 °C-12.8 °C80 %1022 hPa16.1 kmEast (80°)5.6 km/hClear
5:52 AM-9.4 °C-12.2 °C80 %1023.4 hPa16.1 kmENE (60°)11.1 km/hClear
6:52 AM-6.7 °C-10 °C78 %1024 hPa16.1 kmENE (70°)16.7 km/hClear
7:52 AM-7.2 °C-10 °C81 %1025.7 hPa16.1 kmENE (70°)13 km/hClear
8:52 AM-7.2 °C-10 °C81 %1027.4 hPa16.1 kmEast (80°)18.5 km/hClear
9:52 AM-7.2 °C-10.6 °C77 %1029.1 hPa16.1 kmEast (80°)14.8 km/hClear
10:52 AM-6.7 °C-10 °C78 %1029.5 hPa16.1 kmEast (90°)13 km/hClear
11:52 AM-6.1 °C-10.6 °C71 %1029.5 hPa16.1 kmENE (70°)11.1 km/hClear
12:52 PM-6.1 °C-10.6 °C71 %1028.8 hPa16.1 kmENE (70°)7.4 km/hClear
1:52 PM-6.1 °C-10 °C74 %1028.8 hPa16.1 kmENE (70°)7.4 km/hClear
2:52 PM-6.1 °C-10 °C74 %1029.1 hPa16.1 kmENE (60°)14.8 km/hClear
3:52 PM-6.7 °C-11.1 °C71 %1029.5 hPa16.1 kmENE (70°)11.1 km/hClear
4:52 PM-7.2 °C-11.1 °C74 %1029.8 hPa16.1 kmENE (60°)11.1 km/hClear
5:52 PM-7.8 °C-11.7 °C74 %1029.8 hPa16.1 kmENE (60°)16.7 km/hClear
6:52 PM-7.8 °C-11.7 °C74 %1029.5 hPa16.1 kmESE (110°)11.1 km/hClear
7:52 PM-8.9 °C-11.7 °C81 %1028.8 hPa16.1 kmEast (80°)13 km/hClear
8:52 PM-9.4 °C-12.2 °C80 %1029.1 hPa16.1 kmEast (90°)13 km/hClear
9:52 PM-8.9 °C-12.2 °C77 %1028.4 hPa16.1 kmEast (100°)11.1 km/hClear
10:52 PM-7.8 °C-11.7 °C74 %1027.8 hPa16.1 kmSE (140°)16.7 km/hClear
11:52 PM-7.2 °C-11.7 °C71 %1026.1 hPa16.1 kmSE (140°)13 km/hClear
Hourly data recorded from KIEN, located 0 kilometers away from Gordon, Nebraska







STORIES FROM OUR PARTNERS